COSMOS 2251 DEB, 36550

Orbit data source: Space-Track

COSMOS 2251 DEB, 36550 is space debris in LEO originally from a launch on Wed, 16 Jun 1993 UTC launched from the Plesetsk Missile And Space Complex (PKMTR). The debris from Iridium 33, an American commercial communications satellite, has been tracked extensively since its accidental collision with the defunct Russian satellite Cosmos 2251 in 2009. This event, occurring at high speed in low Earth orbit (LEO), generated thousands of pieces of space debris, significantly increasing the risk of further collisions. The Iridium 33 debris cloud has impacted space traffic management and orbital debris mitigation strategies, making it a subject of ongoing study in space situational awareness.

Loading next visibility...
Identifier
36550, 1993-036BDL
Orbit
LEO
Country
Flag of CISCIS
Related business
Manufacturer
Unknown
Mission
Spacecraft
Bus & Motor
Unknown
Mass
Unknown
Launch date (UTC)
1993-06-16 (33 years ago)
Launch vehicle
Unknown
Launch site
Plesetsk Missile And Space Complex (PKMTR)
Object type
Payload
Rocket body
Debris
Shape & HBR
Unknown shape, 0.1 m
Radar Cross Section
Small (<0.1 m²)

Expand to show TLE details & history
Last TLE update: 1 day ago

TLE from 1 day ago
0 COSMOS 2251 DEB
1 36550U 93036BDL 26120.18934194  .00001073  00000-0  43197-3 0  9998
2 36550  74.0432 302.1873 0076666 319.6433  39.9041 14.27695366865717
Epoch: 2026-04-30T04:32Z
TLE epoch observation values (Epoch: 2026-04-30T04:32:39.143Z)
Latitude
Longitude
15.88468°
Altitude
760.002 km
Speed
7.496 km/s
True Right ascension
20h 08m 44s
True Declination
0° 00' 00"
Sunlit
Object was in daylight at epoch
Visualization orbit readout
Latitude
Unknown
Longitude
Unknown
Altitude
Unknown
Speed
Unknown
Apparent Right ascension
Unknown
Apparent Declination
Unknown
Sunlit
N/A
Visualization observer readout
Local Sidereal Time
17:17:30
Azimuth
Unknown
Elevation
Unknown
Doppler factor
Unknown
Orbital elements
Apogee altitude
852.087 km
Perigee altitude
742.068 km
Semi-major axis
7,175.214 km
Eccentricity
0.00767
Inclination
74.0432°
RAAN
302.1873°
Arg. of periapsis
319.6433°
True anomaly
40.47184°
Mean anomaly
39.9041°
Eccentric anomaly
40.18755°
Mean motion
3.57101 °/min
Orbital period
100.81 mins
BSTAR
0.00043197
Loading maneuver chart data...
Computing Atmospheric mass density...
Loading historical data...
Loading historical data...
Loading historical data...
Loading historical data...
Loading historical data...
Loading historical data...
Loading historical data...

Documentation

Showing up to 5 results
|